• In Netherlands
  • List of Countries
  • For 7 days
  • Water Temperature
  • Satellite Maps
  • Weather Map
  • Weather Widgets
  • user-avatar
    Login

    Hourly Weather Andora

    Today, 26 March, Sunday

    Time Temperature Precipitation Wind Pressure Humidity
    00:00 -4°C° 0 mm 2 mps 621 mmHg 87%
    01:00 -4°C° 0 mm 2 mps 621 mmHg 87%
    02:00 -4°C° 0 mm 2 mps 621 mmHg 87%
    03:00 -4°C° 0 mm 2 mps 621 mmHg 88%
    04:00 -4°C° 0 mm 2 mps 621 mmHg 88%
    05:00 -4°C° 0 mm 2 mps 621 mmHg 87%
    06:00 -4°C° 0 mm 2 mps 621 mmHg 87%
    07:00 -2°C° 0 mm 2 mps 622 mmHg 80%
    08:00 +2°C° 0 mm 2 mps 623 mmHg 74%
    09:00 +5°C° 0 mm 2 mps 624 mmHg 67%
    10:00 +6°C° 0 mm 2 mps 625 mmHg 63%
    11:00 +7°C° 0 mm 2 mps 625 mmHg 58%
    12:00 +8°C° 0 mm 2 mps 626 mmHg 54%
    13:00 +8°C° 0 mm 2 mps 625 mmHg 54%
    14:00 +8°C° 0 mm 2 mps 625 mmHg 54%
    15:00 +8°C° 0 mm 2 mps 625 mmHg 54%
    16:00 +6°C° 0 mm 2 mps 624 mmHg 64%
    17:00 +3°C° 0 mm 2 mps 623 mmHg 74%
    18:00 +1°C° 0 mm 2 mps 622 mmHg 84%
    19:00 +1°C° 0 mm 1 mps 622 mmHg 84%
    20:00 0°C° 0 mm 1 mps 622 mmHg 83%
    21:00 -1°C° 0 mm 1 mps 622 mmHg 83%
    22:00 -1°C° 0 mm 1 mps 622 mmHg 79%
    23:00 -3°C° 0 mm 2 mps 622 mmHg 75%

    Tomorrow, 27 March, Monday

    Time Temperature Precipitation Wind Pressure Humidity
    00:00 -3°C° 0 mm 2 mps 622 mmHg 70%
    01:00 -2°C° 0 mm 2 mps 622 mmHg 70%
    02:00 -2°C° 0 mm 2 mps 622 mmHg 70%
    03:00 -2°C° 0 mm 2 mps 622 mmHg 70%
    04:00 -1°C° 0 mm 2 mps 622 mmHg 71%
    05:00 -1°C° 0 mm 2 mps 622 mmHg 73%
    06:00 -1°C° 0 mm 2 mps 623 mmHg 74%
    07:00 0°C° 0.1 mm 3 mps 624 mmHg 70%
    08:00 +2°C° 0.1 mm 3 mps 624 mmHg 66%
    09:00 +3°C° 0.1 mm 3 mps 625 mmHg 61%
    10:00 +3°C° 0.5 mm 3 mps 625 mmHg 65%
    11:00 +3°C° 0.5 mm 3 mps 626 mmHg 69%
    12:00 +3°C° 0.5 mm 3 mps 626 mmHg 73%
    13:00 +4°C° 0.1 mm 3 mps 626 mmHg 72%
    14:00 +4°C° 0.1 mm 3 mps 626 mmHg 70%
    15:00 +5°C° 0.1 mm 3 mps 626 mmHg 68%
    16:00 +5°C° 0.1 mm 2 mps 626 mmHg 75%
    17:00 +3°C° 0.1 mm 2 mps 625 mmHg 82%
    18:00 +2°C° 0.1 mm 2 mps 625 mmHg 89%
    19:00 +2°C° 0 mm 1 mps 625 mmHg 90%
    20:00 +1°C° 0 mm 1 mps 625 mmHg 91%
    21:00 0°C° 0 mm 1 mps 625 mmHg 91%
    22:00 0°C° 0 mm 1 mps 626 mmHg 91%
    23:00 0°C° 0 mm 1 mps 626 mmHg 90%

    Day after tomorrow, 28 March, Tuesday

    Time Temperature Precipitation Wind Pressure Humidity
    00:00 0°C° 0 mm 1 mps 626 mmHg 90%
    01:00 -1°C° 0 mm 1 mps 626 mmHg 90%
    02:00 -1°C° 0 mm 1 mps 625 mmHg 90%
    03:00 -1°C° 0 mm 1 mps 625 mmHg 89%
    04:00 -1°C° 0 mm 1 mps 625 mmHg 89%
    05:00 -1°C° 0 mm 1 mps 625 mmHg 88%
    06:00 -1°C° 0 mm 1 mps 626 mmHg 88%
    07:00 +2°C° 0 mm 1 mps 627 mmHg 79%
    08:00 +5°C° 0 mm 1 mps 629 mmHg 70%
    09:00 +8°C° 0 mm 1 mps 630 mmHg 62%
    10:00 +9°C° 0 mm 1 mps 631 mmHg 60%
    11:00 +10°C° 0 mm 1 mps 631 mmHg 58%
    12:00 +10°C° 0 mm 1 mps 631 mmHg 57%
    13:00 +10°C° 0 mm 1 mps 631 mmHg 59%
    14:00 +10°C° 0 mm 1 mps 631 mmHg 62%
    15:00 +10°C° 0 mm 1 mps 630 mmHg 65%
    16:00 +8°C° 0 mm 1 mps 630 mmHg 73%
    17:00 +6°C° 0 mm 1 mps 629 mmHg 81%
    18:00 +3°C° 0 mm 0 mps 629 mmHg 89%
    19:00 +2°C° 0 mm 0 mps 628 mmHg 90%
    20:00 +1°C° 0 mm 0 mps 628 mmHg 92%
    21:00 0°C° 0 mm 0 mps 628 mmHg 93%
    22:00 -1°C° 0 mm 0 mps 628 mmHg 93%
    23:00 -1°C° 0 mm 0 mps 628 mmHg 92%

    29 March, Wednesday

    Time Temperature Precipitation Wind Pressure Humidity
    00:00 -1°C° 0 mm 0 mps 627 mmHg 92%
    01:00 -1°C° 0 mm 0 mps 627 mmHg 91%
    02:00 -2°C° 0 mm 0 mps 627 mmHg 91%
    03:00 -2°C° 0 mm 0 mps 627 mmHg 90%
    04:00 -2°C° 0 mm 0 mps 627 mmHg 89%
    05:00 -2°C° 0 mm 0 mps 627 mmHg 88%
    06:00 -2°C° 0 mm 0 mps 627 mmHg 87%
    07:00 +2°C° 0 mm 0 mps 629 mmHg 76%
    08:00 +5°C° 0 mm 0 mps 630 mmHg 64%
    09:00 +9°C° 0 mm 0 mps 632 mmHg 53%
    10:00 +11°C° 0 mm 1 mps 632 mmHg 50%
    11:00 +12°C° 0 mm 1 mps 632 mmHg 47%
    12:00 +13°C° 0 mm 1 mps 632 mmHg 44%
    13:00 +13°C° 0 mm 2 mps 632 mmHg 45%
    14:00 +13°C° 0 mm 2 mps 632 mmHg 47%
    15:00 +13°C° 0 mm 2 mps 631 mmHg 48%
    16:00 +10°C° 0 mm 1 mps 630 mmHg 59%
    17:00 +8°C° 0 mm 1 mps 629 mmHg 70%
    18:00 +5°C° 0 mm 1 mps 628 mmHg 81%
    19:00 +4°C° 0 mm 1 mps 628 mmHg 83%
    20:00 +3°C° 0 mm 1 mps 628 mmHg 86%
    21:00 +2°C° 0 mm 1 mps 628 mmHg 88%
    22:00 +2°C° 0 mm 1 mps 628 mmHg 87%
    23:00 +2°C° 0 mm 1 mps 628 mmHg 87%

    30 March, Thursday

    Time Temperature Precipitation Wind Pressure Humidity
    00:00 +2°C° 0 mm 1 mps 627 mmHg 87%
    01:00 +2°C° 0 mm 1 mps 627 mmHg 87%
    02:00 +1°C° 0 mm 1 mps 627 mmHg 86%
    03:00 +1°C° 0 mm 1 mps 627 mmHg 86%
    04:00 +1°C° 0 mm 1 mps 627 mmHg 86%
    05:00 +1°C° 0 mm 1 mps 626 mmHg 85%
    06:00 +1°C° 0 mm 1 mps 626 mmHg 84%
    07:00 +4°C° 0 mm 1 mps 628 mmHg 73%
    08:00 +6°C° 0 mm 2 mps 629 mmHg 61%
    09:00 +10°C° 0 mm 2 mps 630 mmHg 50%
    10:00 +12°C° 0 mm 2 mps 631 mmHg 46%
    11:00 +13°C° 0 mm 2 mps 631 mmHg 42%
    12:00 +13°C° 0 mm 3 mps 631 mmHg 38%
    13:00 +13°C° 0 mm 3 mps 631 mmHg 40%
    14:00 +12°C° 0 mm 3 mps 630 mmHg 41%
    15:00 +12°C° 0 mm 3 mps 630 mmHg 43%
    16:00 +10°C° 0 mm 3 mps 629 mmHg 54%
    17:00 +8°C° 0 mm 2 mps 628 mmHg 64%
    18:00 +5°C° 0 mm 2 mps 627 mmHg 75%
    19:00 +4°C° 0 mm 2 mps 627 mmHg 78%
    20:00 +4°C° 0 mm 2 mps 627 mmHg 80%
    21:00 +4°C° 0 mm 1 mps 627 mmHg 83%
    22:00 +3°C° 0 mm 1 mps 626 mmHg 83%
    23:00 +2°C° 0 mm 2 mps 626 mmHg 82%

    31 March, Friday

    Time Temperature Precipitation Wind Pressure Humidity
    00:00 +2°C° 0 mm 2 mps 626 mmHg 82%
    01:00 +2°C° 0 mm 2 mps 625 mmHg 80%
    02:00 +3°C° 0 mm 1 mps 625 mmHg 79%
    03:00 +3°C° 0 mm 1 mps 625 mmHg 78%
    04:00 +2°C° 0 mm 1 mps 625 mmHg 77%
    05:00 +2°C° 0 mm 1 mps 625 mmHg 75%
    06:00 +2°C° 0 mm 1 mps 625 mmHg 74%
    07:00 +4°C° 0.1 mm 1 mps 626 mmHg 69%
    08:00 +7°C° 0.1 mm 1 mps 627 mmHg 63%
    09:00 +9°C° 0.1 mm 1 mps 628 mmHg 58%
    10:00 +8°C° 0.2 mm 2 mps 628 mmHg 60%
    11:00 +9°C° 0.2 mm 2 mps 628 mmHg 62%
    12:00 +9°C° 0.2 mm 3 mps 628 mmHg 64%
    13:00 +9°C° 0.5 mm 3 mps 627 mmHg 67%
    14:00 +8°C° 0.5 mm 3 mps 627 mmHg 70%
    15:00 +8°C° 0.5 mm 3 mps 626 mmHg 73%
    16:00 +7°C° 1.1 mm 2 mps 626 mmHg 80%
    17:00 +6°C° 1.1 mm 1 mps 625 mmHg 86%
    18:00 +5°C° 1.1 mm 1 mps 624 mmHg 93%
    19:00 +4°C° 0.5 mm 1 mps 624 mmHg 94%
    20:00 +4°C° 0.5 mm 1 mps 624 mmHg 94%
    21:00 +3°C° 0.5 mm 1 mps 624 mmHg 95%
    22:00 +3°C° 0.2 mm 1 mps 623 mmHg 95%
    23:00 +2°C° 0.2 mm 1 mps 623 mmHg 95%
    Show more